Regional Weather Roundup
Issued by NWS Goodland, KS

Home | Current Version | Previous Version | Graphics & Text | Print | Product List | Glossary On
Versions: 1 2 3 4 5 6 7 8 9 10 11 12 13 14 15 16 17 18 19 20 21 22 23 24 25 26 27 28 29 30 31 32 33 34 35 36 37 38 39 40 41 42 43 44 45 46 47 48 49 50
000
ASUS43 KGLD 301559
RWRGLD

GOODLAND FORECAST AREA HOURLY WEATHER ROUNDUP
NATIONAL WEATHER SERVICE GOODLAND KS
1000 AM MDT SAT JUL 30 2016

...OFFICIAL OBSERVATIONS...

CITY           SKY/WX    TMP DP  RH WIND       PRES   REMARKS
GOODLAND KS    SUNNY     76  62  62 SE9       30.01F
HILL CITY KS   SUNNY     81  67  62 S14       30.00S
IMPERIAL NEB   MOSUNNY   76  61  59 VRB6      30.00F
MCCOOK NEB     SUNNY     80  64  58 SE7       29.99F
AKRON CO       SUNNY     76  58  53 SE7       30.04F
BURLINGTON CO  SUNNY     77  58  51 S5        30.03F
LIMON CO       SUNNY     74  58  57 SE9       30.07F
$$

...UNOFFICIAL OBSERVATIONS...

CITY           SKY/WX    TMP DP  RH WIND       PRES   REMARKS
COLBY KS       SUNNY     81  64  57 SE8       30.03S
LENORA KS        N/A     81  32  17 MISG        N/A
NORTON KS      SUNNY     79  63  57 SE9       30.00
SHARON SPRINGS   N/A     78  66  66 S8          N/A
KIT CARSON CO    N/A     76  60  56 MISG        N/A
YUMA CO          N/A     76  62  60 S5G12       N/A
$$




USA.gov is the U.S. government's official web portal to all federal, state and local government web resources and services.